Sarasota, FL

11:08 PM EDT on June 26, 2017 (GMT -0400)
Sarasota-bradenton

Weather History for KSRQ - April, 2013

Change the Weather History Date:

Saturday, April 20, 2013

  Actual Average Record
Temperature  
Mean Temperature 72 °F 72 °F  
Max Temperature 79 °F 81 °F 92 °F (1965)
Min Temperature 65 °F 62 °F 42 °F (1936)
Degree Days  
Heating Degree Days 0 0  
Month to date heating degree days 0 8  
Since 1 July heating degree days 397 475  
Cooling Degree Days 7 7  
Month to date cooling degree days 184 116  
Year to date cooling degree days 419 320  
Growing Degree Days 24 (Base 50)    
Moisture  
Dew Point 66 °F    
Average Humidity 79    
Maximum Humidity 94    
Minimum Humidity 58    
Precipitation  
Precipitation T in 0.09 in 2.08 in (1960)
Month to date precipitation 3.48 1.72  
Year to date precipitation 5.67 10.77  
Sea Level Pressure  
Sea Level Pressure 30.02 in    
Wind  
Wind Speed 9 mph (NNE)    
Max Wind Speed 16 mph    
Max Gust Speed 22 mph    
Visibility 10 miles    
Events Rain    
T = Trace of Precipitation, MM = Missing Value Source: NWS Daily Summary

Daily Weather History Graph

Daily Weather History Graph

Search for Another Location

Airport or City:

Trip Planner

Search our weather history database for the weather conditions in past years. The results will help you decide how hot, cold, wet, or windy it might be!

Date:

Astronomy

Apr. 20, 2013 Rise Set
Actual Time 7:00 AM EDT 7:57 PM EDT
Civil Twilight 6:36 AM EDT 8:21 PM EDT
Nautical Twilight 6:08 AM EDT 8:50 PM EDT
Astronomical Twilight 5:38 AM EDT 9:19 PM EDT
Moon 3:07 PM EDT (4/20) 3:20 AM EDT (4/20)
Length of Visible Light 13h 45m
Length of Day
12h 57m
Waxing Gibbous, 71% of the Moon is Illuminated
Apr 20
Waxing Gibbous
Apr 25
Full
May 2
Last Quarter
May 9
New
May 18
First Quarter

Hourly Weather History & Observations

Time (EDT) Temp. Dew Point Humidity Pressure Visibility Wind Dir Wind Speed Gust Speed Precip Events Conditions
12:53 AM 75.9 °F 73.0 °F 91% 30.00 in 10.0 mi SSW 5.8 mph - N/A   Clear
1:53 AM 75.9 °F 73.0 °F 91% 29.99 in 10.0 mi SSW 8.1 mph - N/A   Partly Cloudy
2:11 AM 75.2 °F 73.4 °F 94% 29.99 in 10.0 mi SSW 6.9 mph - N/A   Mostly Cloudy
2:18 AM 75.2 °F 73.4 °F 94% 29.98 in 10.0 mi SSW 8.1 mph - N/A   Mostly Cloudy
2:31 AM 75.2 °F 73.4 °F 94% 29.98 in 10.0 mi SSW 9.2 mph - N/A   Overcast
2:53 AM 75.9 °F 73.0 °F 91% 29.98 in 10.0 mi SSW 5.8 mph - N/A   Overcast
3:07 AM 75.2 °F 73.4 °F 94% 29.98 in 10.0 mi SSW 8.1 mph - N/A   Mostly Cloudy
3:44 AM 75.2 °F 73.4 °F 94% 29.98 in 10.0 mi SSW 6.9 mph - N/A   Mostly Cloudy
3:53 AM 75.9 °F 73.0 °F 91% 29.98 in 10.0 mi SW 6.9 mph - N/A   Overcast
4:51 AM 73.4 °F 69.8 °F 88% 29.98 in 10.0 mi NW 13.8 mph 19.6 mph N/A   Overcast
4:53 AM 73.0 °F 69.1 °F 87% 29.98 in 10.0 mi NNW 12.7 mph 19.6 mph N/A   Overcast
5:30 AM 71.6 °F 66.2 °F 83% 29.99 in 10.0 mi NNW 8.1 mph - N/A   Mostly Cloudy
5:39 AM 71.6 °F 66.2 °F 83% 29.99 in 10.0 mi North 10.4 mph - N/A   Overcast
5:53 AM 71.1 °F 66.0 °F 84% 29.99 in 10.0 mi North 10.4 mph - N/A   Overcast
6:53 AM 71.1 °F 64.9 °F 81% 29.99 in 10.0 mi NNE 8.1 mph - N/A   Overcast
7:27 AM 69.8 °F 64.4 °F 83% 30.00 in 10.0 mi NNE 10.4 mph - N/A   Mostly Cloudy
7:53 AM 70.0 °F 64.0 °F 81% 30.01 in 10.0 mi NE 11.5 mph - N/A   Clear
8:53 AM 71.1 °F 63.0 °F 75% 30.03 in 10.0 mi NNE 10.4 mph - N/A   Partly Cloudy
9:13 AM 71.6 °F 62.6 °F 73% 30.03 in 10.0 mi North 10.4 mph - N/A   Mostly Cloudy
9:53 AM 70.0 °F 61.0 °F 73% 30.06 in 10.0 mi North 11.5 mph 20.7 mph N/A   Overcast
10:53 AM 73.0 °F 62.1 °F 68% 30.07 in 10.0 mi NNE 15.0 mph 19.6 mph N/A   Mostly Cloudy
11:53 AM 75.9 °F 63.0 °F 64% 30.07 in 10.0 mi NE 9.2 mph - N/A   Mostly Cloudy
12:53 PM 73.9 °F 62.1 °F 66% 30.07 in 10.0 mi NNE 5.8 mph - N/A   Overcast
1:53 PM 78.1 °F 63.0 °F 60% 30.05 in 10.0 mi NE 8.1 mph - 0.00 in   Clear
2:53 PM 78.1 °F 64.0 °F 62% 30.03 in 10.0 mi NE 8.1 mph - N/A   Clear
3:53 PM 78.1 °F 64.0 °F 62% 30.02 in 10.0 mi NNE 8.1 mph - N/A   Clear
4:53 PM 75.0 °F 64.0 °F 69% 30.01 in 10.0 mi NE 6.9 mph - 0.00 in Rain Light Rain
5:53 PM 77.0 °F 64.0 °F 64% 30.00 in 10.0 mi Variable 5.8 mph - 0.00 in   Clear
6:53 PM 75.0 °F 64.0 °F 69% 30.01 in 10.0 mi NE 5.8 mph - N/A   Scattered Clouds
7:53 PM 73.9 °F 64.0 °F 71% 30.03 in 10.0 mi NNE 10.4 mph - N/A   Overcast
8:53 PM 72.0 °F 63.0 °F 73% 30.06 in 10.0 mi NNE 8.1 mph - N/A   Overcast
9:53 PM 70.0 °F 63.0 °F 78% 30.09 in 10.0 mi ENE 8.1 mph - N/A   Overcast
10:53 PM 70.0 °F 63.0 °F 78% 30.12 in 10.0 mi ENE 9.2 mph - 0.00 in Rain Light Rain
11:11 PM 69.8 °F 62.6 °F 78% 30.13 in 10.0 mi NE 9.2 mph - 0.00 in   Overcast
11:53 PM 66.9 °F 63.0 °F 87% 30.12 in 10.0 mi ENE 10.4 mph - 0.00 in   Overcast